Location: Caltech
(34.1382°N, 118.1253°W)
Time: 04:58:28
(UTC-07:00)

Cosmos 1975 - Visible Passes

Search period start: 23 July 2014 00:00
Search period end: 02 August 2014 00:00
Orbit: 555 x 575 km, 82.5° (Epoch: 22 July)

Date Brightness Start Highest point End Pass type
(mag) Time Alt. Az. Time Alt. Az. Time Alt. Az.
23 Jul 5.8 00:37:34 15° N 00:37:34 15° N 00:38:21 10° N visible
24 Jul 5.8 00:37:59 15° N 00:37:59 15° N 00:38:45 10° N visible
25 Jul 5.9 00:38:24 14° NNW 00:38:24 14° NNW 00:39:06 10° N visible
26 Jul 5.9 00:38:48 13° NNW 00:38:48 13° NNW 00:39:25 10° NNW visible
27 Jul 6.0 00:39:11 12° NNW 00:39:11 12° NNW 00:39:39 10° NNW visible
28 Jul 6.0 00:39:33 11° NNW 00:39:33 11° NNW 00:39:50 10° NNW visible
28 Jul 5.7 23:03:53 11° NNE 23:03:53 11° NNE 23:04:04 10° NNE visible
29 Jul 5.6 23:04:14 13° NNE 23:04:14 13° NNE 23:04:44 10° NNE visible
30 Jul 5.5 23:04:33 15° NNE 23:04:33 15° NNE 23:05:19 10° NNE visible
31 Jul 5.4 23:04:52 17° NNE 23:04:52 17° NNE 23:05:52 10° NNE visible
01 Aug 5.3 23:05:10 19° N 23:05:10 19° N 23:06:23 10° N visible
